Mobridge, SD

6:49 PM CDT on March 25, 2017 (GMT -0500)
Mobridge Municipal

Weather History for KMBG - March, 2014

Change the Weather History Date:

Monday, March 10, 2014

  Actual Average Record
Temperature  
Mean Temperature 45 °F 29 °F  
Max Temperature 54 °F 40 °F 70 °F (1911)
Min Temperature 35 °F 19 °F -22 °F (1948)
Degree Days  
Heating Degree Days 20 36  
Month to date heating degree days 454 378  
Since 1 July heating degree days 6994 6353  
Cooling Degree Days 0 0  
Month to date cooling degree days 0 0  
Year to date cooling degree days 0 0  
Moisture  
Dew Point 35 °F    
Average Humidity 74    
Maximum Humidity 89    
Minimum Humidity 59    
Precipitation  
Precipitation 0.07 in 0.02 in 0.28 in (1978)
Month to date precipitation 0.21 0.23  
Year to date precipitation 0.82 0.96  
Snow  
Snow 0.00 in - - ()
Month to date snowfall 2.8  
Since 1 July snowfall 34.2  
Snow Depth 0.00 in    
Sea Level Pressure  
Sea Level Pressure 29.74 in    
Wind  
Wind Speed 8 mph (NNW)    
Max Wind Speed 22 mph    
Max Gust Speed 29 mph    
Visibility 10 miles    
Events Rain    
T = Trace of Precipitation, MM = Missing Value Source: NWS Daily Summary

Daily Weather History Graph

Daily Weather History Graph

Search for Another Location

Airport or City:

Trip Planner

Search our weather history database for the weather conditions in past years. The results will help you decide how hot, cold, wet, or windy it might be!

Date:

Astronomy

Mar. 10, 2014 Rise Set
Actual Time 8:03 AM CDT 7:40 PM CDT
Civil Twilight 7:33 AM CDT 8:10 PM CDT
Nautical Twilight 6:59 AM CDT 8:44 PM CDT
Astronomical Twilight 6:24 AM CDT 9:19 PM CDT
Moon 2:14 PM CDT (3/10) 4:28 AM CDT (3/10)
Length of Visible Light 12h 36m
Length of Day
11h 37m
Waxing Gibbous, 70% of the Moon is Illuminated
Mar 10
Waxing Gibbous
Mar 16
Full
Mar 23
Last Quarter
Mar 30
New
Apr 7
First Quarter

Hourly Weather History & Observations

Time (CDT) Temp. Windchill Dew Point Humidity Pressure Visibility Wind Dir Wind Speed Gust Speed Precip Events Conditions
12:52 AM 39.9 °F 35.8 °F 33.1 °F 77% 29.73 in 10.0 mi NNW 5.8 mph - N/A   Clear
1:52 AM 39.0 °F 34.8 °F 33.1 °F 79% 29.72 in 10.0 mi NW 5.8 mph - N/A   Clear
2:52 AM 39.9 °F 35.1 °F 33.1 °F 77% 29.71 in 10.0 mi NW 6.9 mph - N/A   Clear
3:52 AM 37.0 °F - 32.0 °F 82% 29.71 in 10.0 mi Calm Calm - N/A   Clear
4:52 AM 37.0 °F 32.4 °F 32.0 °F 82% 29.72 in 10.0 mi North 5.8 mph - N/A   Clear
5:52 AM 36.0 °F 29.6 °F 32.0 °F 86% 29.73 in 10.0 mi North 8.1 mph - N/A   Clear
6:52 AM 39.9 °F 34.5 °F 33.1 °F 77% 29.74 in 10.0 mi NNW 8.1 mph - N/A   Clear
7:52 AM 37.9 °F 30.9 °F 33.1 °F 83% 29.75 in 10.0 mi NNW 10.4 mph - N/A   Clear
8:52 AM 37.0 °F - 33.1 °F 86% 29.76 in 10.0 mi Calm Calm - N/A   Clear
9:52 AM 41.0 °F - 35.1 °F 79% 29.76 in 10.0 mi Calm Calm - N/A   Clear
10:52 AM 46.0 °F 41.0 °F 37.0 °F 71% 29.78 in 10.0 mi WNW 10.4 mph - N/A   Clear
11:52 AM 48.9 °F - 37.9 °F 66% 29.77 in 10.0 mi West 3.5 mph - N/A   Clear
12:52 PM 51.1 °F - 39.0 °F 63% 29.77 in 10.0 mi WNW 5.8 mph - N/A   Clear
1:52 PM 52.0 °F - 39.9 °F 63% 29.75 in 10.0 mi WNW 5.8 mph - N/A   Clear
2:52 PM 53.1 °F - 39.9 °F 61% 29.72 in 10.0 mi Variable 3.5 mph - N/A   Partly Cloudy
3:52 PM 51.1 °F - 37.9 °F 61% 29.71 in 10.0 mi NNE 10.4 mph - N/A   Overcast
4:52 PM 51.1 °F - 37.0 °F 59% 29.69 in 10.0 mi NE 9.2 mph - N/A   Mostly Cloudy
6:52 PM 45.0 °F 39.7 °F 36.0 °F 71% 29.70 in 10.0 mi NNE 10.4 mph - N/A   Overcast
7:52 PM 44.1 °F 37.4 °F 35.1 °F 71% 29.71 in 10.0 mi North 13.8 mph - N/A   Overcast
8:52 PM 41.0 °F 32.5 °F 34.0 °F 76% 29.74 in 10.0 mi NNE 17.3 mph 29.9 mph N/A   Overcast
9:52 PM 39.0 °F 31.0 °F 34.0 °F 82% 29.77 in 10.0 mi NNE 13.8 mph - N/A   Overcast
10:52 PM 37.9 °F 27.6 °F 34.0 °F 86% 29.76 in 9.0 mi NNE 20.7 mph 26.5 mph 0.00 in Rain Light Rain
11:52 PM 37.9 °F 29.6 °F 34.0 °F 86% 29.79 in 9.0 mi NE 13.8 mph - 0.03 in Rain Light Rain